[[{"header":{"parameterUnit":"m.s-1","parameterCategory":1,"la1":30.2991,"la2":30.254,"lo1":-89.0895,"lo2":-89.0444,"dy":0.0017,"dx":0.0017,"nx":28,"ny":28,"refTime":"2023-04-29T21:00:00:Z","depth":0,"parameterNumber":2,"parameterNumberName":"U-component_of_WINDS"},"data":[0,0,0,0,0,0,0,0,0,0,0,0,0,0,0,0,0,0,0,0,0,0,0,0,0,0,0,0,0,0,0,0,0,0,0,0,0,0,0,0,0,0,0,0,0,0,0,0,0,0,0,0,0,0,0,0,0,0,2.131,2.1311,0,2.1411,2.1412,2.1413,2.147,2.147,2.147,2.1471,2.1577,2.1579,2.1582,0,0,0,0,0,0,0,0,0,0,0,0,0,2.1172,2.1174,2.131,2.1311,2.1313,2.1411,2.1412,2.1413,2.147,2.147,2.147,2.1471,2.1576,2.1579,2.1582,0,0,0,0,0,0,0,0,0,0,0,0,0,2.1248,2.1174,2.131,2.1353,2.1358,2.141,2.1412,2.1414,2.147,2.147,2.147,2.1471,2.1575,2.1578,2.1582,2.1601,0,0,2.1595,2.1596,0,0,0,0,0,0,0,0,2.1243,2.1253,2.1345,2.135,2.1355,2.1428,2.1402,2.1477,2.147,2.1427,2.1471,2.1471,2.1527,2.1535,2.1553,2.1606,2.1611,2.1595,2.1597,2.1599,2.16,0,0,0,0,0,0,0,2.1238,2.1249,2.135,2.1346,2.1353,2.1368,2.1379,2.1416,2.1475,2.1431,2.1435,2.1446,2.153,2.1549,2.1556,2.1612,2.1595,2.1598,2.1601,2.1602,2.1688,2.1688,0,0,0,0,0,0,2.1226,2.1244,2.1347,2.1353,2.1299,2.137,2.1383,2.1405,2.1474,2.1485,2.1446,2.1449,2.1542,2.1552,2.156,2.1588,2.1599,2.1603,2.1605,2.1688,2.1688,2.1688,0,0,0,0,0,0,2.1222,2.1234,2.1343,2.13,2.1315,2.1373,2.1396,2.1406,2.1426,2.1486,2.1497,2.1455,2.1543,2.1555,2.1591,2.1593,2.1604,2.1608,2.1689,2.1688,2.1688,2.1643,0,0,0,0,0,0,2.1218,2.1233,2.1239,2.13,2.1317,2.137,2.1396,2.1408,2.1432,2.1436,2.1497,2.1507,2.1544,2.1585,2.1595,2.1598,2.1611,2.1689,2.1689,2.1688,2.1645,2.1642,2.1639,0,0,0,0,0,2.1213,2.1223,2.1239,2.1251,2.1326,2.137,2.138,2.1422,2.1432,2.144,2.1479,2.1505,2.1591,2.1588,2.16,2.1604,2.1689,2.1689,2.1688,2.1646,2.1642,2.1639,0,0,0,0,0,0,2.1162,2.1231,2.125,2.128,2.1319,2.138,2.1391,2.1416,2.1454,2.1456,2.1507,2.1521,2.1552,2.1582,2.1578,2.1628,2.1643,2.1645,2.1607,2.1603,2.16,2.1593,2.1614,0,0,0,0,0,2.1154,2.1183,2.1243,2.1263,2.1281,2.1333,2.1353,2.1382,2.1425,2.1442,2.1483,2.1524,2.1561,2.1584,2.1621,2.165,2.1665,2.1659,2.1656,2.1653,2.1654,2.1674,2.1672,2.1688,2.1688,2.1688,0,0,2.1138,2.118,2.1195,2.1254,2.1287,2.1317,2.1346,2.1376,2.14,2.1447,2.1483,2.1515,2.1565,2.1598,2.1615,2.1624,2.1654,2.1653,2.165,2.1653,2.1673,2.1672,2.1671,2.1687,2.1687,2.1687,0,0,2.1125,2.1158,2.118,2.1213,2.1263,2.1297,2.1302,2.136,2.1383,2.142,2.1457,2.1486,2.1547,2.1582,2.1607,2.1608,2.1635,2.1619,2.1603,2.1621,2.162,2.1619,2.1621,2.1621,2.162,2.162,2.162,0,2.1099,2.1144,2.1188,2.1216,2.1242,2.1285,2.1308,2.1338,2.1398,2.1416,2.1425,2.1504,2.154,2.1583,2.1583,2.1602,2.1611,2.1612,2.1617,2.1616,2.1616,2.1618,2.1619,2.1618,2.1618,2.1618,2.1619,0,2.111,2.1142,2.1153,2.1209,2.1236,2.1261,2.131,2.1333,2.136,2.1393,2.1432,2.1478,2.1525,2.1538,2.1564,2.1584,2.1589,2.1606,2.1623,2.1612,2.1615,2.1616,2.1615,2.1615,2.1616,2.1617,0,0,2.1067,2.1147,2.1151,2.1177,2.1236,2.1262,2.1291,2.1336,2.1355,2.1395,2.1421,2.1473,2.149,2.1519,2.1551,2.1566,2.1566,2.1583,2.1585,2.1579,2.1593,2.1579,2.1579,2.1584,2.1584,2.1585,2.1589,0,2.1062,2.1113,2.1154,2.1191,2.1221,2.1264,2.1289,2.1329,2.1362,2.1394,2.1431,2.1467,2.1486,2.1504,2.1522,2.1562,2.157,2.1562,2.161,2.1611,2.1596,2.1581,2.1566,2.1568,2.159,2.1591,2.1591,0,2.1063,2.1101,2.1141,2.1198,2.1213,2.1234,2.128,2.1309,2.1356,2.1379,2.1412,2.1445,2.1479,2.1492,2.154,2.1534,2.1557,2.158,2.1581,2.1587,2.16,2.1587,2.1569,2.157,2.1593,2.1593,2.1592,0,2.1028,2.109,2.1122,2.1143,2.121,2.1225,2.1254,2.1301,2.1326,2.1367,2.1385,2.1429,2.1453,2.1488,2.1533,2.1538,2.1577,2.1593,2.1598,2.1597,2.1604,2.1603,2.159,2.1618,2.1618,2.1618,2.1618,0,2.1019,2.1042,2.1107,2.1126,2.1154,2.1202,2.1228,2.1261,2.1303,2.1331,2.1371,2.1397,2.1454,2.1487,2.1523,2.1558,2.1569,2.159,2.1599,2.1586,2.1584,2.1602,2.1603,2.1618,2.1618,2.1618,2.1618,0,2.0984,2.1028,2.1066,2.1127,2.1143,2.1161,2.1214,2.1236,2.1271,2.1307,2.1318,2.1374,2.1416,2.1463,2.1521,2.1545,2.1578,2.1591,2.1561,2.1567,2.1569,2.1569,2.1568,2.1571,2.1595,2.1595,2.1594,0,2.0975,2.0994,2.1057,2.1078,2.1106,2.1139,2.1166,2.1214,2.124,2.1296,2.1311,2.1355,2.1393,2.1458,2.1505,2.155,2.1565,2.1562,2.1572,2.1559,2.1566,2.1564,2.1567,2.1559,2.1558,2.1558,2.1557,0,2.0955,2.0977,2.1012,2.1055,2.1085,2.1122,2.1161,2.1176,2.1233,2.126,2.1303,2.1332,2.1391,2.1435,2.1486,2.1518,2.1548,2.1554,2.1558,2.1545,2.1527,2.1538,2.1554,2.1554,2.1554,2.1554,2.1554,2.1555,2.0934,2.0953,2.1,2.1039,2.1073,2.1109,2.1132,2.1171,2.1207,2.1257,2.1284,2.1327,2.1376,2.1447,2.1478,2.1513,2.1523,2.1528,2.153,2.153,2.1527,2.1521,2.1523,2.1523,2.1523,2.1523,2.1523,0,2.0917,2.0949,2.0984,2.1037,2.1068,2.1092,2.1137,2.1161,2.1198,2.124,2.1277,2.1327,2.137,2.1421,2.1468,2.1487,2.1502,2.1498,2.1497,2.1505,2.1515,2.1507,2.1485,2.1485,2.1485,2.1485,2.1485,2.1485,2.0911,2.0945,2.0972,2.1024,2.1057,2.1098,2.1122,2.1156,2.119,2.1243,2.1279,2.1312,2.1358,2.141,2.1451,2.1466,2.1482,2.1473,2.1492,2.15,2.1504,2.1507,2.15,2.1476,2.1476,2.1479,2.1478,2.1478]},{"header":{"parameterUnit":"m.s-1","parameterCategory":1,"la1":30.2991,"la2":30.254,"lo1":-89.0895,"lo2":-89.0444,"dy":0.0017,"dx":0.0017,"nx":28,"ny":28,"refTime":"2023-04-29T21:00:00:Z","depth":0,"parameterNumber":3,"parameterNumberName":"V-component_of_WINDS"},"data":[0,0,0,0,0,0,0,0,0,0,0,0,0,0,0,0,0,0,0,0,0,0,0,0,0,0,0,0,0,0,0,0,0,0,0,0,0,0,0,0,0,0,0,0,0,0,0,0,0,0,0,0,0,0,0,0,0,0,-0.1345,-0.1346,0,-0.1407,-0.1408,-0.1408,-0.147,-0.1471,-0.1471,-0.1472,-0.1535,-0.1536,-0.1537,0,0,0,0,0,0,0,0,0,0,0,0,0,-0.128,-0.1281,-0.1345,-0.1346,-0.1347,-0.1407,-0.1408,-0.1409,-0.147,-0.1471,-0.1472,-0.1473,-0.1535,-0.1536,-0.1537,0,0,0,0,0,0,0,0,0,0,0,0,0,-0.1322,-0.1281,-0.1345,-0.1384,-0.1388,-0.1407,-0.1408,-0.1409,-0.1469,-0.1471,-0.1472,-0.1473,-0.1534,-0.1536,-0.1537,-0.1521,0,0,-0.1541,-0.1542,0,0,0,0,0,0,0,0,-0.1319,-0.1324,-0.1378,-0.1382,-0.1386,-0.1432,-0.1408,-0.1446,-0.1469,-0.1439,-0.1472,-0.1474,-0.15,-0.1504,-0.1513,-0.1524,-0.1527,-0.1541,-0.1542,-0.1543,-0.1543,0,0,0,0,0,0,0,-0.1316,-0.1322,-0.137,-0.1378,-0.1384,-0.1399,-0.1406,-0.1416,-0.1462,-0.1441,-0.1446,-0.1453,-0.1502,-0.1511,-0.1515,-0.1528,-0.1541,-0.1542,-0.1543,-0.1544,-0.1532,-0.1531,0,0,0,0,0,0,-0.1308,-0.1319,-0.1368,-0.1371,-0.1355,-0.1399,-0.1407,-0.1416,-0.1462,-0.147,-0.1451,-0.1455,-0.1508,-0.1513,-0.1517,-0.1504,-0.1543,-0.1544,-0.1545,-0.1533,-0.1532,-0.153,0,0,0,0,0,0,-0.1306,-0.1311,-0.1365,-0.1347,-0.1355,-0.1399,-0.1408,-0.1417,-0.1426,-0.1469,-0.1478,-0.1452,-0.151,-0.1515,-0.152,-0.1507,-0.1545,-0.1546,-0.1534,-0.1533,-0.1531,-0.1475,0,0,0,0,0,0,-0.1304,-0.131,-0.1304,-0.1346,-0.1355,-0.1367,-0.1407,-0.1417,-0.1428,-0.1434,-0.1472,-0.148,-0.1511,-0.1518,-0.1522,-0.1509,-0.1547,-0.1536,-0.1534,-0.1532,-0.1479,-0.1472,-0.1466,0,0,0,0,0,-0.1301,-0.1286,-0.1304,-0.1309,-0.1349,-0.1366,-0.1371,-0.1408,-0.1427,-0.1422,-0.145,-0.1479,-0.1507,-0.1518,-0.1523,-0.1511,-0.1537,-0.1534,-0.1532,-0.1481,-0.1473,-0.1466,0,0,0,0,0,0,-0.1241,-0.1292,-0.1312,-0.131,-0.1333,-0.1376,-0.1371,-0.1397,-0.1415,-0.142,-0.1464,-0.1472,-0.1473,-0.1492,-0.1503,-0.1499,-0.1526,-0.1524,-0.1486,-0.1479,-0.1473,-0.1469,-0.1548,0,0,0,0,0,-0.1227,-0.1236,-0.1281,-0.1274,-0.1285,-0.1325,-0.1334,-0.136,-0.1386,-0.1396,-0.1425,-0.1449,-0.1464,-0.1472,-0.1488,-0.1482,-0.1492,-0.1476,-0.1469,-0.1464,-0.1462,-0.1463,-0.1457,-0.1522,-0.1522,-0.1522,0,0,-0.1199,-0.1228,-0.1231,-0.1263,-0.1284,-0.1293,-0.1333,-0.1341,-0.1349,-0.1397,-0.1405,-0.1426,-0.1456,-0.1456,-0.1457,-0.1472,-0.1447,-0.1461,-0.1456,-0.1458,-0.146,-0.1454,-0.1448,-0.152,-0.1521,-0.1521,0,0,-0.1153,-0.1175,-0.1173,-0.1194,-0.1226,-0.1254,-0.1253,-0.1292,-0.1309,-0.1317,-0.1354,-0.1364,-0.1388,-0.1408,-0.1422,-0.1385,-0.1413,-0.1389,-0.1357,-0.1357,-0.1352,-0.1348,-0.1337,-0.1332,-0.1387,-0.1387,-0.1387,0,-0.1114,-0.113,-0.1169,-0.1175,-0.1189,-0.1234,-0.1233,-0.1251,-0.1286,-0.1294,-0.131,-0.1343,-0.1366,-0.1372,-0.1364,-0.1372,-0.1374,-0.1385,-0.135,-0.1346,-0.1342,-0.1332,-0.1328,-0.1384,-0.1384,-0.1385,-0.1385,0,-0.1081,-0.1092,-0.1086,-0.112,-0.1133,-0.1135,-0.1176,-0.1184,-0.1209,-0.1235,-0.1244,-0.1273,-0.1297,-0.13,-0.1324,-0.131,-0.1319,-0.1341,-0.137,-0.1333,-0.1324,-0.132,-0.138,-0.1381,-0.1382,-0.1382,0,0,-0.0999,-0.1056,-0.1053,-0.107,-0.1109,-0.1118,-0.1123,-0.1147,-0.1154,-0.1177,-0.1183,-0.1203,-0.1225,-0.124,-0.1267,-0.1267,-0.1239,-0.129,-0.1292,-0.1281,-0.1228,-0.1212,-0.1207,-0.1257,-0.1257,-0.1256,-0.1227,0,-0.0961,-0.0973,-0.1009,-0.1011,-0.1022,-0.1065,-0.107,-0.1095,-0.112,-0.1133,-0.116,-0.1175,-0.1201,-0.1211,-0.1213,-0.1242,-0.1229,-0.1244,-0.1265,-0.1265,-0.1258,-0.1202,-0.1185,-0.1155,-0.1223,-0.1223,-0.1222,0,-0.0918,-0.094,-0.0943,-0.0983,-0.0989,-0.0993,-0.1019,-0.103,-0.106,-0.1078,-0.1096,-0.1126,-0.1135,-0.1161,-0.1174,-0.1184,-0.1194,-0.121,-0.121,-0.1214,-0.1242,-0.1207,-0.1147,-0.1143,-0.1217,-0.1217,-0.1218,0,-0.0861,-0.089,-0.0896,-0.0909,-0.0956,-0.0958,-0.0977,-0.1008,-0.1021,-0.1043,-0.1052,-0.1074,-0.1087,-0.1104,-0.1141,-0.1156,-0.1151,-0.1179,-0.1167,-0.1167,-0.1165,-0.1165,-0.1108,-0.1169,-0.1169,-0.1169,-0.1169,0,-0.0816,-0.0816,-0.0871,-0.0875,-0.0877,-0.0919,-0.092,-0.0944,-0.0971,-0.0981,-0.1019,-0.1028,-0.1074,-0.1088,-0.1116,-0.1125,-0.1129,-0.1145,-0.1153,-0.1143,-0.1141,-0.1151,-0.1155,-0.1168,-0.1168,-0.1169,-0.1169,0,-0.0752,-0.0788,-0.0798,-0.0842,-0.0853,-0.0853,-0.0891,-0.0897,-0.0925,-0.0937,-0.0942,-0.0985,-0.1004,-0.1041,-0.107,-0.1089,-0.1092,-0.1104,-0.1082,-0.1087,-0.1074,-0.1075,-0.1022,-0.1018,-0.108,-0.108,-0.1079,0,-0.0722,-0.0723,-0.0768,-0.0777,-0.0796,-0.081,-0.0824,-0.0865,-0.0878,-0.0913,-0.0914,-0.0936,-0.0956,-0.0984,-0.1019,-0.1041,-0.1056,-0.1036,-0.106,-0.105,-0.1058,-0.1058,-0.106,-0.1031,-0.103,-0.1029,-0.1028,0,-0.0665,-0.0683,-0.0701,-0.0726,-0.0741,-0.0762,-0.0785,-0.0791,-0.0838,-0.085,-0.087,-0.0886,-0.0916,-0.0938,-0.0966,-0.0987,-0.1016,-0.1021,-0.102,-0.101,-0.0998,-0.1006,-0.1069,-0.1022,-0.1023,-0.1023,-0.1023,-0.1024,-0.0618,-0.0622,-0.0655,-0.0674,-0.0696,-0.0718,-0.0726,-0.0755,-0.0772,-0.0801,-0.0824,-0.0842,-0.0874,-0.0915,-0.0934,-0.095,-0.0963,-0.0961,-0.0961,-0.096,-0.0957,-0.0994,-0.0955,-0.0955,-0.0955,-0.0955,-0.0955,0,-0.0565,-0.0588,-0.0606,-0.0638,-0.0653,-0.0679,-0.0707,-0.0718,-0.0734,-0.0761,-0.078,-0.0804,-0.0826,-0.0862,-0.0887,-0.0893,-0.0907,-0.0898,-0.0899,-0.0904,-0.0942,-0.0942,-0.0887,-0.0887,-0.0887,-0.0887,-0.0887,-0.0887,-0.0539,-0.0549,-0.0571,-0.0592,-0.0616,-0.0635,-0.0649,-0.0669,-0.0691,-0.0716,-0.0735,-0.0758,-0.0789,-0.0817,-0.0839,-0.0849,-0.0857,-0.0845,-0.0859,-0.0894,-0.0901,-0.0907,-0.0907,-0.0846,-0.0846,-0.082,-0.082,-0.082]}]]